[[{"header":{"parameterUnit":"m.s-1","parameterCategory":1,"la1":30.2992,"la2":30.254,"lo1":-89.0895,"lo2":-89.0443,"dy":0.0025,"dx":0.0025,"nx":19,"ny":19,"refTime":"2026-04-05T21:00:00:Z","depth":0,"parameterNumber":2,"parameterNumberName":"U-component_of_WINDS"},"data":[0,0,0,-3.4444,-3.4448,-3.4641,-3.4641,-3.491,-3.4912,0,0,0,0,0,0,0,0,0,0,0,-3.4399,-3.4401,-3.4443,-3.4449,-3.4641,-3.4641,-3.4909,-3.4912,0,0,0,0,0,0,0,0,0,0,0,-3.4398,-3.44,-3.4403,-3.4449,-3.464,-3.4641,-3.4909,-3.4756,0,0,0,0,0,0,0,0,0,0,-3.4565,-3.4535,-3.44,-3.4403,-3.445,-3.464,-3.4641,-3.4748,-3.4766,-3.4832,0,-3.4892,0,-3.4906,-3.4932,-3.4933,0,0,0,-3.444,-3.4521,-3.4562,-3.4403,-3.4452,-3.464,-3.4552,-3.4758,-3.4777,-3.4855,-3.4896,-3.4905,-3.4911,-3.4933,-3.4935,-3.5341,-3.5344,0,0,-3.4429,-3.444,-3.4548,-3.4575,-3.4545,-3.4545,-3.4558,-3.4769,-3.4815,-3.4897,-3.4911,-3.4915,-3.4935,-3.4938,-3.5339,-3.5342,0,0,0,-3.4405,-3.4433,-3.4468,-3.4564,-3.4597,-3.4551,-3.4565,-3.4806,-3.4816,-3.4914,-3.4918,-3.4937,-3.4941,-3.5337,-3.534,-3.5466,0,0,0,-3.4398,-3.4419,-3.4464,-3.4473,-3.4594,-3.4704,-3.4598,-3.4802,-3.4825,-3.4917,-3.4937,-3.4943,-3.5334,-3.5339,-3.5457,-3.5525,0,0,0,-3.4382,-3.4417,-3.4448,-3.4473,-3.4556,-3.47,-3.4722,-3.4807,-3.4829,-3.4933,-3.4944,-3.5332,-3.5338,-3.5449,-3.5512,-3.5638,0,0,0,-3.4369,-3.4557,-3.445,-3.4662,-3.4554,-3.4775,-3.4721,-3.4885,-3.4989,-3.4938,-3.5334,-3.534,-3.5447,-3.5504,-3.5629,-3.5748,-3.5797,0,0,-3.4613,-3.4587,-3.471,-3.4621,-3.4863,-3.4744,-3.5006,-3.5091,-3.5091,-3.5258,-3.5268,-3.546,-3.5511,-3.5636,-3.6064,-3.6103,0,0,0,-3.4791,-3.4881,-3.4943,-3.5042,-3.511,-3.5176,-3.5219,-3.525,-3.5391,-3.5179,-3.5537,-3.5567,-3.564,-3.5696,-3.573,-3.5793,-3.5365,-3.5365,-3.5364,-3.5155,-3.5144,-3.5348,-3.5361,-3.5457,-3.55,-3.5578,-3.5628,-3.5589,-3.5674,-3.5725,-3.5986,-3.6052,-3.6077,-3.6143,-3.5783,-3.5784,-3.5784,-3.5784,-3.5514,-3.5641,-3.5582,-3.5761,-3.5749,-3.5899,-3.5947,-3.5914,-3.6054,-3.5946,-3.601,-3.5897,-3.612,-3.6178,-3.5794,-3.5792,-3.5791,-3.579,-3.5789,-3.5754,-3.5813,-3.5847,-3.5989,-3.61,-3.6105,-3.6241,-3.6224,-3.6209,-3.6272,-3.6326,-3.6324,-3.6323,-3.6297,-3.6298,-3.6299,-3.63,-3.6301,-3.6301,-3.5992,-3.6026,-3.6143,-3.623,-3.6292,-3.6371,-3.6414,-3.6475,-3.6538,-3.6515,-3.6516,-3.6471,-3.6142,-3.6063,-3.6316,-3.6313,-3.6311,-3.631,-3.6309,-3.6368,-3.628,-3.6461,-3.6522,-3.6624,-3.6737,-3.6711,-3.6837,-3.6884,-3.6952,-3.6892,-3.6651,-3.6624,-3.6598,-3.6532,-3.6891,-3.6891,-3.6891,-3.6891,-3.6575,-3.6557,-3.6739,-3.6839,-3.6934,-3.693,-3.7136,-3.7172,-3.7195,-3.7224,-3.7168,-3.7078,-3.7051,-3.7041,-3.7005,-3.6944,-3.7399,-3.74,-3.74,-3.6807,-3.6798,-3.6978,-3.6997,-3.7075,-3.7144,-3.7338,-3.7457,-3.7464,-3.7421,-3.7248,-3.7226,-3.708,-3.7032,-3.699,-3.6933,-3.6821,0,0]},{"header":{"parameterUnit":"m.s-1","parameterCategory":1,"la1":30.2992,"la2":30.254,"lo1":-89.0895,"lo2":-89.0443,"dy":0.0025,"dx":0.0025,"nx":19,"ny":19,"refTime":"2026-04-05T21:00:00:Z","depth":0,"parameterNumber":3,"parameterNumberName":"V-component_of_WINDS"},"data":[0,0,0,-7.3793,-7.3796,-7.3949,-7.3949,-7.4164,-7.4166,0,0,0,0,0,0,0,0,0,0,0,-7.3763,-7.3765,-7.3792,-7.3797,-7.3949,-7.3949,-7.4164,-7.4166,0,0,0,0,0,0,0,0,0,0,0,-7.3762,-7.3764,-7.3767,-7.3797,-7.3949,-7.3949,-7.4163,-7.404,0,0,0,0,0,0,0,0,0,0,-7.3888,-7.3877,-7.3764,-7.3767,-7.3798,-7.3949,-7.3949,-7.4034,-7.4048,-7.4105,0,-7.4162,0,-7.4168,-7.4182,-7.4183,0,0,0,-7.3784,-7.3866,-7.3893,-7.3767,-7.38,-7.3948,-7.3877,-7.4041,-7.4057,-7.4123,-7.4165,-7.4172,-7.4172,-7.4184,-7.4185,-7.4561,-7.4563,0,0,-7.3776,-7.3798,-7.3882,-7.3904,-7.3886,-7.3872,-7.3881,-7.4051,-7.4096,-7.4166,-7.4177,-7.4175,-7.4185,-7.4187,-7.4559,-7.4562,0,0,0,-7.376,-7.3793,-7.3815,-7.3896,-7.3922,-7.3877,-7.3888,-7.4089,-7.4094,-7.4179,-7.4178,-7.4187,-7.419,-7.4556,-7.456,-7.4699,0,0,0,-7.3754,-7.3783,-7.3812,-7.3827,-7.392,-7.4008,-7.3922,-7.4083,-7.4101,-7.4177,-7.4187,-7.4192,-7.4554,-7.4558,-7.4689,-7.4761,0,0,0,-7.3748,-7.3782,-7.381,-7.3828,-7.3895,-7.4005,-7.402,-7.4086,-7.4101,-7.4183,-7.4193,-7.4552,-7.4557,-7.4681,-7.4747,-7.4867,0,0,0,-7.3746,-7.393,-7.3813,-7.4017,-7.3894,-7.4091,-7.4019,-7.4163,-7.425,-7.4188,-7.4554,-7.4559,-7.4679,-7.4738,-7.4858,-7.4973,-7.5023,0,0,-7.399,-7.396,-7.4079,-7.3978,-7.4202,-7.4066,-7.4308,-7.4365,-7.4351,-7.4491,-7.45,-7.4693,-7.4746,-7.4865,-7.5293,-7.5333,0,0,0,-7.4163,-7.4249,-7.4303,-7.4389,-7.4439,-7.4486,-7.4504,-7.4525,-7.4643,-7.4429,-7.4767,-7.4798,-7.4867,-7.4921,-7.4955,-7.5012,-7.4585,-7.4584,-7.4584,-7.4541,-7.4515,-7.4709,-7.4702,-7.4785,-7.4802,-7.4866,-7.4896,-7.4843,-7.4924,-7.4966,-7.5229,-7.5293,-7.5318,-7.5378,-7.5023,-7.5024,-7.5024,-7.5025,-7.4897,-7.5014,-7.4941,-7.5104,-7.5074,-7.5208,-7.5231,-7.5189,-7.5308,-7.5195,-7.5254,-7.5134,-7.5363,-7.5414,-7.5035,-7.5033,-7.5032,-7.5031,-7.503,-7.5142,-7.5194,-7.5218,-7.5339,-7.5434,-7.5417,-7.5537,-7.5504,-7.5473,-7.5532,-7.5572,-7.557,-7.5564,-7.5553,-7.5554,-7.5555,-7.5556,-7.5557,-7.5557,-7.5388,-7.541,-7.5516,-7.5585,-7.5635,-7.5697,-7.5714,-7.5762,-7.5806,-7.5772,-7.5772,-7.5712,-7.539,-7.531,-7.5571,-7.5569,-7.5567,-7.5566,-7.5565,-7.576,-7.5671,-7.5835,-7.5886,-7.5962,-7.6059,-7.6015,-7.6115,-7.6149,-7.6208,-7.6135,-7.5902,-7.5868,-7.5841,-7.5774,-7.614,-7.614,-7.614,-7.614,-7.5967,-7.5947,-7.6108,-7.6191,-7.6268,-7.6246,-7.6429,-7.6444,-7.6444,-7.6463,-7.6405,-7.6314,-7.6288,-7.6269,-7.6232,-7.617,-7.6628,-7.6629,-7.6629,-7.6195,-7.6181,-7.6345,-7.6347,-7.6404,-7.6454,-7.6625,-7.672,-7.6702,-7.6648,-7.6477,-7.6456,-7.6309,-7.6262,-7.6206,-7.615,-7.6035,0,0]}]]